Пашино

Россия / Новосибирская область     55°09′43″N   82°58′52″E
темп.,
°C
ветер,
м/с
пор.,
м/с
влажн.,
%
обл.,
%
осадки,
мм/ч
давл.,
гПа
погр.,
м
7 мая, пт
пт701:00+16ю496168 0.0 1000141
04:00+16сз61470100 0.0 1002547
07:00+13сз51170100 0.0 1006653
10:00+15зсз6948100 0.0 10081409
13:00+16зсз71034100 0.0 10101971
16:00+17з810305 0.0 10112353
19:00+16з6103611 0.0 10132369
22:00+12з411460 0.0 1016296
8 мая, сб
сб801:00+9зсз36590 0.0 1018111
04:00+7з34620 0.0 101970
07:00+8зюз38596 0.0 1020198
10:00+15зюз610376 0.0 1019950
13:00+18зсз7124190 0.0 10182201
16:00+20з8133562 0.0 10162582
19:00+18з61244100 0.0 1016797
22:00+15з3455100 0.0 101659
9 мая, вс
вс901:00+14сз246350 0.0 101784
04:00+9ссв36855 0.0 1018130
07:00+6св47705 0.0 1021290
10:00+10ссв45515 0.0 1021759
13:00+14ссв44375 0.0 10201272
16:00+15св333064 0.0 10201550
19:00+15св443259 0.0 10201406
22:00+10св3749100 0.0 1020134
10 мая, пн
пн1001:00+8всв3655100 0.0 1019122
04:00+6всв366323 0.0 1018108
07:00+6всв48694 0.0 1018243
10:00+11св68485 0.0 1017883
13:00+13св78385 0.0 10161588
16:00+15св683570 0.0 10152116
19:00+13ссв673935 0.0 10152053
22:00+9ссв612525 0.0 1016641
11 мая, вт
вт1101:00+8ссв511595 0.0 1015413
04:00+4с410755 0.0 1017323
07:00+4с49775 0.0 1018342
10:00+10с57545 0.0 10181306
13:00+12ссв4644100 0.0 10181898
16:00+14ссв3639100 0.0 10182229
19:00+14с454283 0.0 10191756
22:00+9ссз226345 0.0 102117